Location: Newark
(7.1028°S, 35.3258°W)
Time: 00:32:35
(UTC+00:00)

Vanguard 3 - Pass Details

Date: 28 February 2020
Orbit: 508 x 3262 km, 33.3° (Epoch: 28 March)

Event Time Altitude Azimuth Distance (km) Brightness Sun altitude
Rises 01:58:48 0° 231° (SW) 6,770 12.1 -72.3°
Reaches altitude 10° 02:05:17 10° 219° (SW) 5,321 11.4 -73.1°
Enters shadow 02:08:43 16° 209° (SSW) 4,573 11.0 -73.4°
